QPF
0.00 0.00 0.00 0.00 0.00 0.00 0.00 0.00 0.00 0.00 0.00 0.00 0.00 0.00 0.00 0.00 0.00 0.00 0.00 0.00 0.00 0.00 0.00 0.00 0.01 0.01 0.01 0.01 0.01 0.01 0.01 0.01 0.02 0.02 0.02 0.02 0.03 0.02 0.03 0.03 0.03 0.03
0.00 0.00 0.00 0.00 0.00 0.00 0.00 0.00 0.00 0.00 0.00 0.00 0.00 0.00 0.00 0.00 0.00 0.00 0.00 0.00 0.00 0.00 0.00 0.00 0.00 0.01 0.01 0.01 0.01 0.01 0.01 0.02 0.02 0.02 0.02 0.02 0.03 0.02 0.03 0.03 0.03 0.03
0.00 0.00 0.00 0.00 0.00 0.00 0.00 0.00 0.00 0.00 0.00 0.00 0.00 0.00 0.00 0.00 0.00 0.00 0.00 0.00 0.00 0.00 0.00 0.00 0.01 0.01 0.01 0.01 0.01 0.01 0.01 0.02 0.02 0.02 0.02 0.02 0.03 0.03 0.03 0.03 0.03 0.04
0.00 0.00 0.00 0.00 0.00 0.00 0.00 0.00 0.00 0.00 0.00 0.00 0.00 0.00 0.00 0.00 0.00 0.00 0.00 0.00 0.00 0.00 0.00 0.00 0.01 0.01 0.01 0.01 0.01 0.01 0.01 0.01 0.02 0.02 0.02 0.03 0.03 0.03 0.03 0.03 0.04 0.04
0.00 0.00 0.00 0.00 0.00 0.00 0.00 0.00 0.00 0.00 0.00 0.00 0.00 0.00 0.00 0.00 0.00 0.00 0.00 0.00 0.00 0.00 0.00 0.00 0.01 0.01 0.01 0.02 0.02 0.02 0.02 0.02 0.02 0.02 0.03 0.03 0.03 0.03 0.04 0.04 0.05 0.05
0.00 0.00 0.00 0.00 0.00 0.00 0.00 0.00 0.00 0.00 0.00 0.00 0.00 0.00 0.00 0.00 0.00 0.00 0.00 0.00 0.00 0.00 0.01 0.01 0.01 0.01 0.01 0.02 0.02 0.02 0.02 0.02 0.03 0.03 0.03 0.03 0.03 0.03 0.03 0.04 0.04 0.05
0.00 0.00 0.00 0.00 0.00 0.00 0.00 0.00 0.00 0.00 0.00 0.00 0.00 0.00 0.00 0.00 0.00 0.00 0.00 0.00 0.00 0.01 0.01 0.01 0.01 0.01 0.01 0.02 0.02 0.02 0.02 0.02 0.02 0.03 0.03 0.03 0.03 0.03 0.03 0.04 0.04 0.04
0.00 0.00 0.00 0.00 0.00 0.00 0.00 0.00 0.00 0.00 0.00 0.00 0.00 0.00 0.00 0.00 0.00 0.00 0.00 0.00 0.00 0.00 0.01 0.01 0.01 0.01 0.01 0.02 0.02 0.02 0.02 0.02 0.02 0.02 0.03 0.03 0.03 0.03 0.03 0.04 0.04 0.04
0.00 0.00 0.00 0.00 0.00 0.00 0.00 0.00 0.00 0.00 0.00 0.00 0.00 0.00 0.00 0.00 0.00 0.00 0.00 0.00 0.00 0.00 0.00 0.01 0.01 0.01 0.01 0.02 0.02 0.02 0.02 0.02 0.02 0.02 0.03 0.03 0.03 0.03 0.03 0.04 0.04 0.04
0.00 0.00 0.00 0.00 0.00 0.00 0.00 0.00 0.00 0.00 0.00 0.00 0.00 0.00 0.00 0.00 0.00 0.00 0.00 0.00 0.00 0.00 0.00 0.01 0.01 0.01 0.01 0.01 0.02 0.02 0.02 0.02 0.02 0.02 0.02 0.03 0.03 0.03 0.03 0.04 0.04 0.04
0.00 0.00 0.00 0.00 0.00 0.00 0.00 0.00 0.00 0.00 0.00 0.00 0.00 0.00 0.00 0.00 0.00 0.00 0.00 0.00 0.00 0.00 0.00 0.00 0.00 0.01 0.01 0.01 0.02 0.02 0.02 0.02 0.02 0.02 0.02 0.03 0.03 0.03 0.03 0.03 0.04 0.04
0.00 0.00 0.00 0.00 0.00 0.00 0.00 0.00 0.00 0.00 0.00 0.00 0.00 0.00 0.00 0.00 0.00 0.00 0.00 0.00 0.00 0.00 0.00 0.00 0.00 0.00 0.01 0.01 0.01 0.01 0.02 0.02 0.02 0.02 0.02 0.02 0.03 0.03 0.03 0.03 0.03 0.03
0.00 0.00 0.00 0.00 0.00 0.00 0.00 0.00 0.00 0.00 0.00 0.00 0.00 0.00 0.00 0.00 0.00 0.00 0.00 0.00 0.00 0.00 0.00 0.00 0.00 0.00 0.00 0.00 0.01 0.02 0.02 0.02 0.02 0.02 0.02 0.02 0.02 0.02 0.02 0.03 0.03 0.03
0.00 0.00 0.00 0.00 0.00 0.00 0.00 0.00 0.00 0.00 0.00 0.00 0.00 0.00 0.00 0.00 0.00 0.00 0.00 0.00 0.00 0.00 0.00 0.00 0.00 0.00 0.00 0.00 0.01 0.02 0.02 0.03 0.03 0.03 0.02 0.02 0.02 0.02 0.02 0.02 0.02 0.02
0.00 0.00 0.00 0.00 0.00 0.00 0.00 0.00 0.00 0.00 0.00 0.00 0.00 0.00 0.00 0.00 0.00 0.00 0.00 0.00 0.00 0.00 0.00 0.00 0.00 0.00 0.00 0.00 0.02 0.03 0.03 0.03 0.03 0.03 0.02 0.02 0.02 0.02 0.02 0.02 0.02 0.02
0.00 0.00 0.00 0.00 0.00 0.00 0.00 0.00 0.00 0.00 0.00 0.00 0.00 0.00 0.00 0.00 0.00 0.00 0.00 0.00 0.00 0.00 0.00 0.00 0.00 0.00 0.00 0.00 0.01 0.04 0.04 0.04 0.03 0.02 0.02 0.02 0.01 0.02 0.02 0.02 0.01 0.01
0.00 0.00 0.00 0.00 0.00 0.00 0.00 0.00 0.00 0.00 0.00 0.00 0.00 0.00 0.00 0.00 0.00 0.00 0.00 0.00 0.00 0.00 0.00 0.00 0.00 0.00 0.00 0.00 0.01 0.02 0.04 0.04 0.03 0.03 0.02 0.01 0.01 0.01 0.01 0.01 0.01 0.01
0.00 0.00 0.00 0.00 0.00 0.00 0.00 0.00 0.00 0.00 0.00 0.00 0.00 0.00 0.00 0.00 0.00 0.00 0.00 0.00 0.00 0.00 0.00 0.00 0.00 0.00 0.00 0.00 0.01 0.02 0.03 0.07 0.04 0.03 0.01 0.01 0.01 0.01 0.01 0.01 0.01 0.01
0.00 0.00 0.00 0.00 0.00 0.00 0.00 0.00 0.00 0.00 0.00 0.00 0.00 0.00 0.00 0.00 0.00 0.00 0.00 0.00 0.00 0.00 0.00 0.00 0.00 0.00 0.00 0.00 0.01 0.02 0.03 0.05 0.04 0.02 0.01 0.00 0.00 0.01 0.01 0.01 0.01 0.01
0.00 0.00 0.00 0.00 0.00 0.00 0.00 0.00 0.00 0.00 0.00 0.00 0.00 0.00 0.00 0.00 0.00 0.00 0.00 0.00 0.00 0.00 0.00 0.00 0.00 0.00 0.00 0.00 0.01 0.02 0.02 0.08 0.05 0.03 0.01 0.00 0.00 0.00 0.00 0.01 0.01 0.01
0.00 0.00 0.00 0.00 0.00 0.00 0.00 0.00 0.00 0.00 0.00 0.00 0.00 0.00 0.00 0.00 0.00 0.00 0.00 0.00 0.00 0.00 0.00 0.00 0.00 0.00 0.00 0.00 0.01 0.02 0.02 0.07 0.04 0.01 0.00 0.00 0.00 0.00 0.00 0.00 0.00 0.00
0.00 0.00 0.00 0.00 0.00 0.00 0.00 0.00 0.00 0.00 0.00 0.00 0.00 0.00 0.00 0.00 0.00 0.00 0.00 0.00 0.00 0.00 0.00 0.00 0.00 0.00 0.00 0.00 0.01 0.01 0.03 0.03 0.03 0.01 0.00 0.00 0.00 0.00 0.00 0.00 0.00 0.00
0.00 0.00 0.00 0.00 0.00 0.00 0.00 0.00 0.00 0.00 0.00 0.00 0.00 0.00 0.00 0.00 0.00 0.00 0.00 0.00 0.00 0.00 0.00 0.00 0.00 0.00 0.00 0.00 0.00 0.01 0.03 0.03 0.03 0.01 0.00 0.00 0.00 0.00 0.00 0.00 0.00 0.00
0.00 0.00 0.00 0.00 0.00 0.00 0.00 0.00 0.00 0.00 0.00 0.00 0.00 0.00 0.00 0.00 0.00 0.00 0.00 0.00 0.00 0.00 0.00 0.00 0.00 0.00 0.00 0.00 0.00 0.01 0.03 0.03 0.03 0.01 0.00 0.00 0.00 0.00 0.00 0.00 0.00 0.00
0.00 0.00 0.00 0.00 0.00 0.00 0.00 0.00 0.00 0.00 0.00 0.00 0.00 0.00 0.00 0.00 0.00 0.00 0.00 0.00 0.00 0.00 0.00 0.00 0.00 0.00 0.00 0.00 0.00 0.01 0.02 0.03 0.03 0.01 0.01 0.00 0.00 0.00 0.00 0.00 0.00 0.00
0.00 0.00 0.00 0.00 0.00 0.00 0.00 0.00 0.00 0.00 0.00 0.00 0.00 0.00 0.00 0.00 0.00 0.00 0.00 0.00 0.00 0.00 0.00 0.00 0.00 0.00 0.00 0.00 0.00 0.00 0.01 0.02 0.03 0.02 0.01 0.00 0.00 0.00 0.00 0.00 0.00 0.00
MSLP
1045.16 1045.00 1044.88 1044.76 1044.72 1044.56 1044.40 1044.16 1043.92 1043.72 1043.48 1043.24 1043.12 1042.84 1042.56 1042.24 1041.92 1041.48 1041.12 1040.68 1040.36 1040.00 1039.56 1039.12 1038.68 1038.20 1037.64 1037.08 1036.64 1036.44 1036.04 1035.96 1035.76 1035.24 1035.24 1034.84 1034.56 1034.20 1033.96 1033.44 1033.24 1032.88
1045.56 1045.48 1045.36 1045.24 1045.08 1044.92 1044.76 1044.56 1044.40 1044.08 1043.92 1043.64 1043.44 1043.16 1042.80 1042.44 1042.16 1041.76 1041.40 1041.00 1040.60 1040.28 1039.88 1039.48 1039.00 1038.56 1038.04 1037.44 1036.84 1036.64 1036.28 1036.20 1036.12 1035.52 1035.48 1035.12 1034.80 1034.52 1034.32 1033.80 1033.60 1033.16
1045.96 1045.88 1045.68 1045.56 1045.40 1045.24 1045.04 1044.92 1044.64 1044.44 1044.24 1043.96 1043.64 1043.40 1043.04 1042.68 1042.36 1042.00 1041.64 1041.28 1040.92 1040.52 1040.12 1039.72 1039.32 1038.88 1038.40 1037.80 1037.16 1036.80 1036.52 1036.44 1036.28 1035.84 1035.72 1035.32 1034.92 1034.84 1034.68 1034.12 1033.92 1033.60
1046.16 1046.08 1045.96 1045.80 1045.60 1045.44 1045.24 1045.08 1044.84 1044.56 1044.40 1044.08 1043.76 1043.56 1043.20 1042.88 1042.56 1042.20 1041.80 1041.48 1041.20 1040.80 1040.40 1040.04 1039.60 1039.16 1038.68 1038.08 1037.44 1036.96 1036.68 1036.60 1036.36 1036.12 1035.92 1035.52 1035.20 1034.96 1034.92 1034.48 1034.32 1033.92
1046.24 1046.08 1046.00 1045.88 1045.76 1045.56 1045.32 1045.20 1044.96 1044.68 1044.52 1044.24 1043.92 1043.64 1043.28 1042.96 1042.72 1042.32 1041.96 1041.68 1041.36 1041.04 1040.64 1040.24 1039.80 1039.44 1038.96 1038.40 1037.76 1037.12 1036.76 1036.68 1036.52 1036.28 1036.12 1035.84 1035.44 1035.20 1034.96 1034.64 1034.56 1034.12
1046.40 1046.20 1046.16 1045.96 1045.84 1045.60 1045.40 1045.28 1045.04 1044.80 1044.60 1044.24 1044.00 1043.80 1043.44 1043.20 1042.96 1042.60 1042.24 1041.92 1041.60 1041.28 1040.92 1040.48 1040.12 1039.72 1039.28 1038.72 1038.12 1037.56 1036.92 1036.76 1036.64 1036.40 1036.28 1036.00 1035.64 1035.48 1035.04 1034.72 1034.60 1034.40
1046.56 1046.36 1046.24 1046.12 1046.00 1045.80 1045.64 1045.52 1045.28 1045.04 1044.84 1044.52 1044.20 1043.96 1043.52 1043.36 1043.00 1042.76 1042.40 1042.12 1041.80 1041.52 1041.16 1040.80 1040.40 1040.00 1039.60 1039.08 1038.52 1038.04 1037.40 1036.80 1036.72 1036.56 1036.36 1036.16 1035.72 1035.64 1035.20 1034.84 1034.64 1034.48
1046.72 1046.60 1046.44 1046.36 1046.20 1046.04 1045.88 1045.76 1045.52 1045.32 1045.04 1044.68 1044.48 1044.16 1043.76 1043.52 1043.16 1042.84 1042.52 1042.16 1041.92 1041.60 1041.28 1040.96 1040.64 1040.24 1039.88 1039.44 1039.00 1038.32 1037.80 1037.08 1036.68 1036.52 1036.44 1036.16 1035.84 1035.72 1035.32 1035.00 1034.76 1034.52
1046.88 1046.72 1046.56 1046.44 1046.32 1046.20 1046.08 1045.96 1045.72 1045.56 1045.28 1045.04 1044.76 1044.36 1044.00 1043.72 1043.32 1042.96 1042.60 1042.24 1041.96 1041.64 1041.32 1041.04 1040.68 1040.40 1040.04 1039.68 1039.24 1038.68 1038.16 1037.56 1036.80 1036.48 1036.36 1036.16 1035.92 1035.76 1035.48 1035.12 1034.88 1034.56
1047.00 1046.84 1046.76 1046.60 1046.52 1046.32 1046.28 1046.08 1045.92 1045.68 1045.44 1045.24 1044.92 1044.60 1044.24 1043.80 1043.52 1043.08 1042.68 1042.32 1041.96 1041.64 1041.32 1041.00 1040.72 1040.40 1040.08 1039.76 1039.40 1038.92 1038.44 1037.80 1037.04 1036.44 1036.24 1036.12 1035.92 1035.76 1035.56 1035.28 1035.04 1034.72
1047.04 1046.92 1046.84 1046.72 1046.60 1046.48 1046.40 1046.20 1046.00 1045.80 1045.56 1045.32 1044.96 1044.64 1044.32 1043.96 1043.52 1043.16 1042.80 1042.36 1042.00 1041.64 1041.28 1041.00 1040.72 1040.44 1040.16 1039.80 1039.36 1038.92 1038.48 1037.88 1037.16 1036.44 1036.16 1036.00 1035.84 1035.68 1035.56 1035.44 1035.20 1034.96
1047.12 1047.00 1046.96 1046.84 1046.68 1046.56 1046.40 1046.24 1046.08 1045.84 1045.60 1045.36 1045.04 1044.72 1044.36 1044.04 1043.60 1043.24 1042.92 1042.40 1042.00 1041.64 1041.32 1040.96 1040.64 1040.36 1040.16 1039.84 1039.40 1038.96 1038.40 1037.76 1037.00 1036.32 1036.08 1035.92 1035.80 1035.64 1035.56 1035.48 1035.28 1035.04
1047.12 1047.08 1047.00 1046.92 1046.76 1046.64 1046.48 1046.28 1046.08 1045.88 1045.64 1045.36 1045.08 1044.84 1044.44 1043.96 1043.64 1043.28 1042.88 1042.40 1041.96 1041.60 1041.32 1040.92 1040.56 1040.32 1040.04 1039.68 1039.32 1038.84 1038.24 1037.44 1036.60 1036.04 1036.04 1035.92 1035.76 1035.60 1035.48 1035.40 1035.28 1035.08
1047.16 1047.12 1047.08 1046.96 1046.84 1046.68 1046.52 1046.32 1046.08 1045.84 1045.64 1045.40 1045.12 1044.84 1044.44 1044.08 1043.72 1043.28 1042.84 1042.40 1042.00 1041.60 1041.28 1040.88 1040.56 1040.24 1039.88 1039.52 1039.12 1038.60 1037.76 1036.84 1036.00 1035.92 1036.00 1035.92 1035.80 1035.60 1035.40 1035.32 1035.20 1035.04
1047.24 1047.20 1047.12 1047.00 1046.88 1046.72 1046.48 1046.28 1046.04 1045.84 1045.56 1045.36 1045.16 1044.88 1044.52 1044.16 1043.80 1043.36 1042.84 1042.36 1041.96 1041.60 1041.20 1040.88 1040.56 1040.20 1039.84 1039.40 1038.84 1037.96 1037.00 1036.16 1035.76 1036.00 1035.96 1035.92 1035.84 1035.60 1035.36 1035.24 1035.08 1034.92
1047.40 1047.32 1047.16 1047.08 1046.92 1046.68 1046.52 1046.28 1046.00 1045.76 1045.48 1045.28 1045.04 1044.80 1044.52 1044.12 1043.72 1043.36 1043.00 1042.44 1041.96 1041.60 1041.24 1040.92 1040.56 1040.16 1039.68 1039.12 1038.20 1037.20 1036.48 1035.96 1035.80 1036.00 1036.00 1036.00 1035.88 1035.64 1035.40 1035.16 1034.96 1034.80
1047.44 1047.32 1047.20 1047.08 1046.88 1046.72 1046.48 1046.20 1045.92 1045.68 1045.48 1045.20 1044.96 1044.68 1044.40 1044.00 1043.68 1043.32 1042.84 1042.44 1042.04 1041.60 1041.24 1040.96 1040.60 1040.12 1039.56 1038.48 1037.44 1036.76 1036.32 1035.88 1035.96 1036.00 1036.08 1036.00 1035.88 1035.76 1035.48 1035.16 1034.92 1034.72
1047.40 1047.28 1047.16 1047.00 1046.84 1046.60 1046.36 1046.12 1045.92 1045.68 1045.44 1045.16 1044.88 1044.56 1044.20 1043.96 1043.60 1043.20 1042.80 1042.40 1042.00 1041.64 1041.32 1040.96 1040.56 1040.12 1039.32 1038.32 1037.48 1036.68 1036.08 1035.64 1036.00 1036.00 1036.12 1036.00 1035.92 1035.84 1035.60 1035.32 1035.00 1034.64
1047.32 1047.16 1047.00 1046.88 1046.68 1046.48 1046.24 1046.04 1045.84 1045.60 1045.32 1045.04 1044.76 1044.48 1044.16 1043.84 1043.48 1043.12 1042.76 1042.40 1042.04 1041.64 1041.24 1040.92 1040.52 1040.00 1039.28 1038.32 1037.40 1036.56 1035.88 1035.52 1035.96 1036.00 1036.12 1035.96 1035.96 1035.84 1035.64 1035.48 1035.20 1034.80
1047.20 1047.04 1046.88 1046.72 1046.56 1046.36 1046.16 1045.96 1045.76 1045.48 1045.28 1045.08 1044.72 1044.36 1044.08 1043.72 1043.44 1043.08 1042.72 1042.40 1042.00 1041.64 1041.28 1040.88 1040.44 1039.96 1039.24 1038.16 1037.20 1036.48 1035.92 1035.36 1035.88 1036.00 1036.12 1036.04 1035.96 1035.76 1035.68 1035.56 1035.36 1035.04
1047.08 1046.96 1046.80 1046.56 1046.40 1046.24 1046.04 1045.88 1045.64 1045.36 1045.12 1044.84 1044.56 1044.24 1043.88 1043.56 1043.20 1042.88 1042.60 1042.28 1041.96 1041.68 1041.28 1040.76 1040.32 1039.84 1039.00 1038.00 1037.20 1036.56 1035.96 1035.44 1035.96 1036.16 1036.12 1035.92 1035.84 1035.72 1035.68 1035.60 1035.40 1035.16
1047.00 1046.84 1046.64 1046.44 1046.24 1046.08 1045.92 1045.68 1045.40 1045.20 1044.92 1044.56 1044.32 1044.00 1043.68 1043.36 1043.04 1042.80 1042.40 1042.04 1041.76 1041.48 1041.04 1040.60 1040.12 1039.68 1038.92 1038.08 1037.32 1036.64 1035.92 1035.72 1035.80 1035.96 1035.92 1035.88 1035.72 1035.60 1035.60 1035.52 1035.36 1035.20
1046.96 1046.72 1046.48 1046.28 1046.12 1045.96 1045.76 1045.52 1045.16 1044.88 1044.72 1044.52 1044.08 1043.72 1043.36 1043.04 1042.76 1042.44 1042.16 1041.84 1041.44 1041.16 1040.80 1040.36 1039.96 1039.44 1038.96 1038.20 1037.44 1036.68 1036.04 1035.84 1035.80 1035.96 1035.92 1035.80 1035.72 1035.60 1035.48 1035.36 1035.24 1035.04
1046.80 1046.60 1046.36 1046.16 1046.08 1045.88 1045.60 1045.28 1045.12 1044.84 1044.60 1044.32 1044.00 1043.44 1043.04 1042.76 1042.48 1042.12 1041.80 1041.56 1041.20 1040.84 1040.56 1040.12 1039.60 1039.20 1038.84 1038.32 1037.48 1036.68 1036.12 1035.88 1035.76 1035.84 1035.80 1035.72 1035.56 1035.44 1035.36 1035.24 1035.08 1034.84
1046.68 1046.48 1046.32 1046.16 1045.96 1045.72 1045.56 1045.24 1044.92 1044.68 1044.36 1044.16 1043.80 1043.40 1042.92 1042.60 1042.24 1041.88 1041.44 1041.16 1040.96 1040.60 1040.20 1039.88 1039.48 1039.08 1038.68 1038.24 1037.44 1036.60 1036.12 1035.96 1035.68 1035.72 1035.56 1035.44 1035.32 1035.12 1035.08 1035.00 1034.88 1034.84
1046.52 1046.36 1046.24 1046.12 1045.80 1045.52 1045.40 1045.12 1044.84 1044.52 1044.16 1043.84 1043.48 1043.20 1042.72 1042.32 1042.04 1041.72 1041.24 1040.80 1040.56 1040.28 1039.96 1039.68 1039.36 1038.92 1038.56 1038.08 1037.44 1036.68 1036.20 1035.96 1035.68 1035.64 1035.48 1035.28 1035.16 1034.88 1034.64 1034.68 1034.72 1034.64
Thickness
5254 5251 5249 5246 5244 5242 5239 5238 5236 5234 5233 5232 5230 5229 5229 5228 5228 5228 5228 5228 5228 5228 5229 5229 5230 5232 5233 5234 5235 5236 5236 5236 5237 5239 5240 5241 5243 5244 5246 5248 5250 5253
5240 5236 5234 5232 5228 5226 5224 5221 5219 5217 5215 5214 5212 5211 5210 5210 5209 5209 5210 5210 5210 5210 5211 5212 5213 5214 5215 5216 5218 5218 5219 5220 5220 5221 5222 5223 5225 5226 5228 5230 5232 5234
5226 5222 5219 5217 5213 5210 5208 5205 5203 5201 5199 5197 5196 5194 5193 5193 5191 5191 5190 5191 5191 5191 5191 5192 5193 5195 5196 5197 5200 5201 5201 5201 5202 5202 5203 5204 5206 5207 5208 5211 5213 5214
5213 5209 5205 5202 5199 5196 5193 5190 5188 5185 5183 5181 5179 5178 5177 5176 5174 5173 5172 5171 5171 5170 5170 5170 5171 5172 5174 5175 5178 5179 5181 5181 5182 5183 5183 5184 5186 5187 5188 5190 5191 5194
5200 5196 5193 5189 5186 5183 5180 5177 5174 5171 5168 5166 5164 5162 5161 5159 5157 5156 5155 5153 5152 5152 5152 5151 5151 5151 5152 5154 5156 5157 5159 5159 5160 5161 5162 5163 5165 5166 5168 5169 5171 5173
5187 5183 5180 5176 5173 5170 5166 5163 5160 5157 5155 5152 5149 5147 5145 5144 5141 5140 5138 5137 5135 5134 5134 5133 5132 5132 5132 5133 5135 5136 5138 5139 5139 5141 5141 5143 5144 5145 5147 5150 5151 5153
5174 5170 5166 5162 5159 5155 5152 5149 5145 5142 5140 5137 5134 5132 5130 5128 5126 5124 5122 5121 5119 5117 5116 5117 5116 5115 5115 5115 5116 5117 5119 5121 5121 5122 5123 5124 5126 5127 5129 5131 5133 5134
5160 5156 5152 5149 5145 5141 5137 5134 5130 5127 5124 5122 5120 5117 5114 5113 5111 5109 5107 5105 5104 5102 5100 5100 5099 5099 5099 5099 5099 5101 5102 5104 5106 5107 5107 5108 5109 5111 5113 5115 5116 5118
5146 5142 5138 5135 5131 5127 5122 5118 5114 5111 5108 5105 5103 5101 5098 5096 5095 5093 5092 5090 5089 5087 5086 5085 5084 5084 5084 5083 5084 5085 5087 5089 5091 5093 5093 5094 5094 5095 5096 5099 5101 5103
5133 5128 5124 5120 5116 5112 5108 5104 5099 5095 5092 5089 5087 5085 5082 5081 5078 5077 5076 5075 5074 5073 5072 5071 5070 5070 5070 5069 5070 5071 5072 5075 5077 5080 5081 5081 5081 5080 5082 5084 5086 5088
5118 5113 5109 5105 5101 5097 5093 5088 5084 5080 5077 5073 5072 5070 5067 5066 5064 5062 5061 5061 5060 5059 5058 5058 5057 5056 5056 5057 5057 5058 5060 5062 5065 5068 5069 5069 5069 5068 5068 5069 5072 5074
5103 5098 5094 5090 5086 5082 5077 5073 5069 5065 5062 5059 5057 5056 5054 5052 5051 5049 5047 5047 5046 5046 5046 5046 5045 5044 5044 5045 5045 5046 5049 5052 5055 5058 5059 5059 5058 5058 5057 5056 5058 5060
5089 5083 5079 5075 5070 5067 5062 5058 5055 5051 5049 5046 5043 5042 5041 5040 5039 5037 5036 5035 5034 5034 5034 5034 5034 5033 5033 5033 5034 5036 5038 5042 5047 5049 5049 5049 5048 5048 5047 5047 5047 5047
5075 5069 5065 5060 5056 5052 5048 5044 5041 5038 5035 5033 5031 5030 5028 5027 5026 5026 5025 5024 5024 5023 5023 5023 5023 5022 5023 5024 5025 5027 5030 5034 5039 5040 5040 5040 5040 5039 5039 5038 5037 5036
5062 5057 5052 5048 5043 5040 5036 5032 5029 5026 5024 5021 5020 5018 5016 5015 5014 5014 5015 5015 5014 5013 5013 5012 5012 5012 5012 5013 5016 5019 5022 5026 5030 5031 5031 5031 5031 5031 5031 5030 5029 5027
5050 5045 5041 5036 5032 5029 5025 5022 5019 5016 5013 5011 5009 5007 5005 5004 5003 5002 5002 5003 5003 5004 5003 5002 5001 5001 5002 5003 5007 5011 5014 5018 5020 5021 5022 5022 5022 5023 5023 5022 5020 5018
5038 5035 5030 5025 5022 5018 5015 5012 5008 5006 5003 5000 4998 4996 4994 4993 4992 4991 4991 4990 4991 4992 4992 4992 4991 4991 4992 4995 4999 5002 5004 5008 5010 5011 5012 5013 5013 5014 5013 5012 5011 5011
5028 5025 5020 5016 5012 5008 5005 5001 4998 4995 4992 4990 4988 4985 4984 4982 4980 4980 4980 4979 4980 4980 4981 4981 4980 4980 4983 4986 4989 4992 4994 4996 4999 5002 5003 5004 5004 5003 5003 5001 5002 5004
5018 5015 5011 5006 5002 4997 4994 4990 4987 4985 4981 4979 4978 4975 4973 4972 4970 4970 4969 4968 4969 4970 4970 4971 4970 4970 4972 4976 4979 4982 4984 4986 4989 4993 4994 4995 4995 4993 4991 4991 4993 4996
5009 5005 5000 4997 4992 4988 4985 4981 4977 4975 4972 4970 4969 4967 4965 4964 4962 4961 4960 4958 4958 4959 4960 4961 4960 4960 4962 4966 4970 4972 4974 4976 4978 4983 4984 4984 4985 4983 4981 4982 4984 4986
4999 4995 4991 4987 4983 4979 4976 4972 4969 4967 4964 4963 4961 4959 4957 4955 4954 4953 4951 4950 4950 4949 4951 4952 4951 4952 4954 4958 4961 4962 4964 4967 4969 4972 4974 4974 4975 4973 4971 4973 4975 4977
4989 4986 4983 4979 4976 4972 4968 4965 4962 4959 4956 4955 4953 4951 4950 4947 4946 4945 4943 4943 4943 4941 4943 4944 4943 4943 4945 4949 4951 4952 4955 4958 4960 4962 4963 4965 4966 4963 4961 4963 4965 4967
4981 4978 4975 4972 4968 4965 4961 4957 4954 4951 4949 4947 4946 4945 4943 4940 4939 4938 4936 4935 4935 4934 4935 4937 4937 4936 4937 4939 4942 4944 4946 4949 4951 4953 4954 4956 4955 4953 4953 4955 4957 4958
4974 4971 4968 4965 4961 4957 4954 4951 4947 4945 4942 4939 4938 4937 4936 4933 4931 4931 4930 4927 4927 4927 4927 4929 4930 4930 4930 4931 4933 4936 4938 4941 4943 4945 4946 4947 4947 4945 4945 4946 4948 4950
4969 4965 4960 4958 4954 4950 4947 4943 4940 4938 4935 4931 4929 4928 4928 4927 4924 4924 4924 4921 4919 4919 4919 4920 4922 4923 4923 4924 4926 4929 4930 4932 4935 4937 4939 4940 4940 4939 4938 4938 4940 4942
4962 4959 4954 4950 4948 4945 4941 4936 4933 4931 4928 4925 4923 4921 4920 4919 4917 4916 4917 4915 4913 4912 4913 4912 4914 4916 4916 4916 4918 4921 4923 4925 4927 4929 4930 4932 4934 4934 4933 4932 4933 4934